Theta_e
317 317 317 317 317 317 317 317 317 317 318 318 318 317 318 319 319 314 301 306 311 329 335 334 328 320 325 324 333 336 318 314 319 321 321 329 326 334 337 328 331 332 330 334 340
317 317 317 317 317 317 317 317 317 317 317 317 317 318 317 319 311 306 315 323 328 340 331 320 313 310 304 309 320 325 316 318 324 327 324 327 328 330 327 326 326 328 334 338 340
317 317 316 316 317 317 317 316 316 316 316 317 317 317 319 318 300 296 324 329 333 341 321 316 314 307 304 309 314 325 318 325 327 330 329 328 328 331 326 322 325 326 331 335 336
317 317 317 316 316 316 316 316 316 316 316 316 316 317 319 310 287 310 336 332 336 328 310 308 308 305 304 306 317 319 326 326 328 334 332 327 329 327 329 329 331 333 335 335 334
317 316 316 316 317 316 316 316 316 316 316 316 316 317 311 299 298 306 349 334 329 317 307 304 306 306 305 308 322 319 326 329 333 334 332 331 327 326 328 334 332 335 335 333 333
316 316 316 316 315 316 316 316 316 315 315 315 316 317 304 291 302 320 327 325 322 310 305 305 306 312 310 311 317 321 325 329 331 331 331 327 326 327 329 336 330 333 332 333 333
316 316 316 315 315 315 314 314 314 314 314 315 315 315 306 297 314 320 323 318 315 308 304 305 310 311 315 310 313 319 320 326 328 328 328 329 321 324 333 333 328 331 332 333 333
316 316 316 315 314 314 314 314 314 314 315 315 316 309 294 308 312 310 312 308 309 303 304 307 312 313 314 315 305 309 317 314 325 328 329 325 314 327 333 331 328 330 331 332 333
315 315 315 314 314 314 315 315 316 316 316 317 304 300 294 315 308 312 310 308 304 301 302 311 311 308 309 299 296 297 302 312 319 328 326 323 315 325 332 331 326 328 330 331 333
316 315 314 314 313 312 313 314 317 317 317 317 313 299 304 303 307 308 308 308 303 302 302 301 303 299 296 295 292 292 294 310 316 324 326 321 319 325 329 330 328 327 329 331 331
315 315 315 313 312 311 306 307 302 300 305 298 297 301 304 309 309 307 310 308 302 297 294 299 298 295 295 298 299 298 311 314 320 322 320 317 316 322 327 328 328 325 324 328 330
315 315 314 313 312 311 304 299 302 304 298 306 306 304 307 306 302 304 310 304 300 294 298 297 295 301 303 300 299 304 312 313 319 323 317 316 317 323 326 327 329 329 320 326 329
315 314 314 313 311 306 300 302 307 306 295 300 305 303 303 306 302 302 307 303 299 297 298 297 300 303 301 298 298 294 307 311 312 319 319 317 314 319 325 328 330 332 324 328 330
315 314 313 312 302 303 302 306 306 305 290 297 297 303 304 303 300 308 309 306 300 298 300 298 303 301 299 298 298 290 301 317 315 308 303 315 301 314 320 322 326 328 323 326 329
315 313 311 311 301 301 303 304 303 298 283 302 302 307 301 299 302 304 309 304 298 300 299 297 299 299 297 299 300 297 302 316 314 308 305 311 302 306 320 318 322 326 325 327 330
314 312 311 306 304 305 308 303 299 291 286 298 303 301 297 298 301 305 304 305 304 300 298 299 302 300 300 302 302 309 311 309 306 304 297 305 304 304 313 317 321 325 328 327 329
312 310 308 309 302 306 306 302 291 286 299 296 295 298 295 293 299 302 299 296 294 290 289 296 298 300 301 295 297 300 299 294 293 294 294 300 303 303 315 322 324 324 326 326 330
310 307 306 309 306 306 302 296 287 296 295 299 299 296 292 294 295 299 298 295 297 294 289 289 289 297 300 298 294 296 298 294 288 290 294 302 299 304 319 322 326 327 329 325 328
308 301 302 306 308 304 297 287 288 292 299 298 296 293 293 298 297 297 296 295 297 296 291 288 291 300 300 299 300 294 294 298 293 289 294 298 304 312 320 322 325 327 329 327 328
303 303 304 309 309 302 295 290 291 299 301 297 290 294 291 295 296 294 294 297 297 299 295 293 288 295 300 302 302 296 299 292 290 286 287 296 298 302 314 317 324 325 328 329 330
302 301 307 308 305 298 290 290 296 301 302 295 293 293 293 296 296 294 293 297 299 299 298 293 292 294 296 293 296 297 294 293 293 291 291 291 297 317 317 318 322 326 329 330 331
300 297 307 304 297 292 291 296 300 296 299 296 297 296 296 296 296 296 293 295 300 299 296 296 290 289 294 297 297 296 295 294 291 292 293 295 298 323 323 326 324 325 328 329 331
298 299 306 304 291 290 293 295 297 296 296 296 296 297 296 292 293 297 298 302 303 299 296 296 290 287 290 292 295 293 293 292 293 296 294 294 298 322 323 323 326 324 326 327 328
298 293 296 295 291 292 290 291 292 299 297 297 296 296 293 294 294 296 298 303 305 306 310 303 291 289 287 288 292 291 295 293 291 290 292 296 306 317 318 320 323 325 326 327 328
298 294 294 291 293 290 291 292 293 292 296 298 296 295 292 291 293 294 296 299 303 306 300 297 291 292 293 294 295 294 296 299 291 293 295 299 307 314 318 319 321 323 324 324 323
300 299 298 293 290 290 291 291 292 294 295 294 295 296 295 292 292 292 293 293 295 298 298 298 294 293 294 297 296 293 300 297 306 304 305 308 309 319 320 318 319 320 320 318 318
304 304 300 294 291 291 290 292 296 296 296 297 298 296 294 294 295 295 295 295 293 293 294 295 294 292 288 294 296 292 297 295 304 308 309 304 310 317 313 315 314 313 314 314 314
Wind_Speed
12 12 12 11 11 11 10 10 10 10 11 11 11 11 12 13 12 3 7 11 10 10 9 8 4 2 2 1 2 2 1 3 3 3 8 5 2 3 2 7 2 3 12 14 15
12 12 12 12 11 11 12 11 10 11 10 11 12 11 11 12 3 8 13 11 14 11 10 11 6 6 2 3 3 3 1 1 5 4 9 10 4 3 4 8 11 16 17 18 16
12 13 12 11 12 11 10 12 11 10 10 10 11 11 11 7 3 8 5 16 15 9 6 5 7 5 2 3 3 4 2 4 4 13 7 5 7 5 8 5 16 23 20 18 15
12 11 12 12 12 11 11 10 10 11 10 10 10 11 12 0 1 1 7 17 15 7 7 7 5 6 4 4 4 3 4 2 0 13 14 8 6 3 5 3 14 22 21 16 15
13 12 11 12 11 12 11 11 11 10 11 10 9 9 4 1 10 4 2 18 8 7 7 6 6 5 4 3 5 3 5 5 2 13 18 12 7 9 3 8 13 18 17 16 12
13 12 12 12 11 11 11 10 10 11 10 9 7 4 1 3 3 4 10 10 8 6 5 5 7 5 3 2 4 5 5 9 7 12 11 15 7 2 4 9 17 17 16 14 13
14 13 12 12 10 10 10 11 10 9 9 7 4 2 1 11 3 5 5 2 6 7 6 2 2 2 1 1 3 3 6 6 7 11 9 15 9 7 6 14 18 17 15 14 13
13 13 12 11 10 8 9 8 9 7 6 4 3 1 8 3 3 2 1 4 5 4 4 3 1 1 1 3 4 4 5 4 7 12 8 2 4 6 5 12 16 16 14 14 15
14 13 13 12 11 9 8 11 8 4 1 5 1 1 9 3 2 7 5 6 6 3 2 1 3 1 1 3 4 5 3 4 6 11 8 3 4 4 2 3 16 15 14 15 12
14 13 12 12 11 11 12 6 4 4 4 4 4 2 6 2 3 5 5 8 5 4 1 3 3 2 3 4 5 3 2 2 7 11 8 2 6 7 7 3 7 14 13 14 12
15 13 11 11 10 10 6 3 2 1 2 7 5 4 5 6 1 3 7 5 5 2 5 3 5 6 5 5 5 3 4 8 5 2 6 2 5 4 8 7 5 6 12 13 14
15 15 12 11 9 6 2 2 4 2 8 10 7 7 6 1 3 4 6 7 5 4 3 5 7 7 6 4 5 5 6 5 5 2 4 4 5 7 12 11 4 6 8 14 8
16 16 14 11 8 1 3 7 1 2 1 6 5 4 4 8 6 6 8 5 6 5 4 7 4 10 5 5 5 2 6 5 7 5 6 8 4 5 7 8 6 5 7 10 15
15 15 14 11 2 2 5 2 2 4 5 7 3 2 4 3 2 6 8 7 3 7 7 3 3 8 6 4 5 4 8 10 14 5 5 2 3 4 10 13 10 7 7 10 13
16 15 11 5 4 3 1 2 4 4 5 12 5 2 3 4 6 4 6 4 5 6 7 6 6 5 4 6 6 7 7 15 11 5 5 6 2 3 10 12 13 8 8 14 15
17 14 9 1 2 7 6 2 4 7 3 7 5 5 4 2 1 4 4 4 4 5 3 5 1 5 8 5 10 5 9 10 6 4 2 8 6 5 12 22 21 19 16 14 16
18 13 4 1 3 6 4 4 6 5 5 7 4 5 2 1 2 3 5 3 4 5 3 4 4 4 4 4 2 4 5 3 4 1 6 4 5 7 10 11 25 29 20 15 16
22 5 6 4 4 7 4 7 8 3 4 4 4 3 2 1 2 2 6 3 3 5 3 5 5 7 5 9 8 8 9 7 6 5 3 3 6 4 6 6 11 11 17 9 13
19 1 1 4 5 3 7 7 4 4 4 7 6 5 6 5 3 2 3 7 4 7 7 5 6 4 6 5 10 5 4 6 8 3 4 2 3 5 7 5 11 12 13 11 13
3 2 3 2 3 4 7 2 3 4 4 3 3 1 6 7 6 4 2 1 0 5 3 3 2 3 2 4 3 6 6 4 3 5 3 2 3 3 3 3 7 13 11 9 9
2 4 4 2 3 7 4 4 4 5 4 1 3 3 1 3 1 3 1 2 1 1 5 4 3 6 1 1 7 2 1 7 6 4 7 4 5 2 4 5 8 8 8 9 10
2 3 3 3 6 2 2 3 3 4 6 3 0 2 3 3 7 1 2 2 6 2 3 1 5 3 2 2 2 1 4 5 7 4 2 3 3 2 5 8 10 9 8 7 6
3 1 3 5 3 3 5 2 2 6 5 6 5 5 4 3 4 3 4 4 9 1 4 5 3 3 6 7 5 6 3 5 5 4 4 5 4 5 7 7 9 10 9 8 7
3 3 5 5 1 4 1 3 2 3 3 2 4 1 4 6 4 2 5 4 5 4 7 5 3 4 7 5 3 4 5 3 5 5 5 3 10 10 10 9 11 10 11 9 9
4 0 2 1 4 2 2 2 4 6 5 7 6 6 1 5 5 6 4 6 5 11 4 5 4 3 4 3 5 5 7 6 1 5 7 9 12 15 13 13 11 11 12 12 12
4 3 4 1 2 3 5 3 2 3 6 6 4 4 6 5 2 2 6 5 2 6 4 7 4 4 5 6 7 5 11 9 5 3 5 12 5 7 10 10 10 9 10 11 12
2 1 4 3 2 4 2 2 1 2 1 2 2 2 4 2 3 2 1 1 3 4 4 4 7 2 3 7 3 5 7 4 4 1 6 7 8 16 14 13 11 8 9 10 11
Wind_Direction
335 333 331 330 327 326 326 325 326 326 326 326 326 327 327 326 320 150 234 218 189 205 178 124 114 187 105 175 163 107 73 325 24 95 119 142 41 26 48 142 91 84 124 123 129
333 330 326 324 323 322 320 319 320 320 322 322 322 324 324 330 296 248 240 208 213 183 143 150 156 144 138 187 184 134 131 330 18 110 167 146 94 322 144 98 97 92 103 122 132
334 330 326 322 320 318 317 315 315 314 317 317 320 320 320 340 312 248 214 196 185 193 133 121 122 143 154 152 192 164 155 209 88 108 159 163 138 237 133 103 153 139 139 140 144
329 326 324 321 318 315 313 309 309 310 312 313 317 318 313 126 213 37 137 183 181 169 128 127 124 131 144 182 174 149 165 178 309 147 167 163 120 85 356 77 142 137 141 146 153
329 326 323 320 316 310 307 305 304 304 307 308 314 317 325 326 253 306 275 169 140 148 161 140 132 131 178 199 130 208 177 135 82 133 153 140 126 164 173 92 133 136 144 155 157
329 327 323 322 320 316 310 305 303 301 302 303 308 317 264 247 284 317 126 129 142 136 158 149 162 175 142 223 191 191 148 138 145 134 142 136 129 99 209 139 146 150 152 159 163
326 327 326 324 324 322 316 311 304 303 302 296 284 259 3 239 41 29 103 117 147 132 141 240 112 181 133 206 277 169 116 131 149 143 134 124 147 208 129 154 159 159 163 162 172
329 327 324 327 328 330 315 302 295 294 285 272 227 242 245 258 357 115 174 82 99 49 104 201 159 13 219 290 6 113 101 152 161 156 158 8 159 163 103 151 167 165 169 168 177
330 329 330 331 328 323 312 298 286 246 191 157 93 262 271 321 199 198 161 133 92 14 335 324 119 179 345 97 16 13 169 178 157 176 131 43 83 268 117 166 168 173 172 178 179
334 329 331 330 328 323 322 288 126 140 149 175 261 314 268 278 181 151 154 142 132 127 92 120 66 94 47 86 182 196 126 140 125 181 140 86 54 168 173 219 150 175 176 177 174
333 330 327 326 326 334 350 97 28 16 209 213 203 263 288 288 189 142 144 122 96 118 142 185 104 203 188 196 143 127 77 101 80 8 85 359 359 168 177 232 189 155 181 179 183
333 328 327 326 322 319 302 152 219 166 311 232 253 268 265 65 300 98 124 123 131 195 143 72 217 198 198 151 122 105 96 78 71 29 69 123 323 159 180 207 202 162 181 183 151
332 328 328 330 324 214 209 228 349 65 119 297 193 199 223 148 195 186 129 123 141 145 206 152 215 150 157 150 132 139 141 168 139 126 45 116 6 127 183 216 235 210 188 184 159
332 324 322 327 296 192 242 239 210 152 55 307 314 277 138 209 197 181 165 144 155 164 152 184 243 134 139 156 133 183 189 152 141 112 150 162 204 234 190 215 228 229 180 181 176
331 327 323 314 292 199 118 314 120 70 51 315 314 156 124 174 150 214 175 89 170 149 110 236 158 153 142 181 172 223 166 158 160 100 104 190 144 232 165 206 227 241 192 187 181
325 328 322 154 242 249 294 322 71 41 24 334 343 352 42 13 54 111 106 59 145 114 43 211 186 143 198 180 176 122 88 49 60 73 313 192 185 228 189 201 198 201 224 190 187
319 317 241 220 241 296 294 51 35 80 329 323 329 4 336 341 58 117 123 92 128 87 19 331 253 213 154 135 87 78 75 70 45 68 219 240 128 238 225 206 195 198 204 193 190
324 319 201 227 282 345 48 53 63 278 286 307 320 333 68 228 216 95 112 122 69 84 123 155 296 169 185 169 176 183 160 152 155 189 219 100 215 260 299 216 204 199 207 179 182
320 215 168 254 217 161 70 57 192 210 270 326 327 33 347 356 88 83 68 164 199 175 173 150 268 265 195 150 140 189 171 185 104 24 96 231 299 298 15 64 155 149 158 163 172
335 12 327 3 161 59 71 195 222 216 305 6 29 36 39 346 36 71 32 271 172 189 139 218 298 260 271 117 45 157 165 99 14 138 183 297 281 251 3 54 125 144 137 127 134
16 50 300 349 54 47 106 230 281 241 217 261 340 359 90 54 28 17 359 257 204 79 130 137 108 290 111 147 169 116 89 52 107 100 150 155 253 217 231 160 138 130 132 139 135
73 57 305 27 44 39 116 205 302 332 35 305 148 62 42 360 40 4 71 315 356 205 108 130 141 222 162 304 266 75 143 132 121 223 39 130 247 342 94 117 136 142 136 107 93
84 205 312 87 77 337 297 7 36 18 16 357 357 36 32 37 97 349 350 337 22 64 156 168 18 44 1 355 7 49 22 101 101 92 203 136 218 138 117 117 144 147 133 122 124
87 49 341 55 84 140 153 2 8 12 70 46 353 14 51 25 14 130 336 338 360 15 53 105 82 145 174 193 188 13 2 94 104 115 168 207 148 157 144 133 133 134 129 118 117
32 244 191 288 351 70 68 41 19 3 360 24 27 21 326 30 14 19 359 311 10 357 29 82 82 45 37 240 100 74 23 343 302 167 147 186 172 172 153 150 142 139 133 127 122
105 113 20 81 320 48 357 7 51 350 23 349 64 14 28 89 105 350 22 14 19 316 55 351 31 333 2 358 113 76 20 11 55 85 48 112 108 136 138 126 135 132 126 120 115
322 9 111 305 43 78 261 172 238 126 340 44 327 18 36 354 249 247 243 284 15 5 46 102 128 250 291 339 321 17 351 337 320 256 163 156 179 145 146 147 142 140 134 128 122